Regional Weather Roundup
Issued by NWS Jackson, KY

Home | Current Version | Previous Version | Text Only | Print | Product List | Glossary On
Versions: 1 2 3 4 5 6 7 8 9 10 11 12 13 14 15 16 17 18 19 20 21 22 23 24 25 26 27 28 29 30 31 32 33 34 35 36 37 38 39 40 41 42 43 44 45 46 47 48 49 50
000
ASUS43 KJKL 270919
RWRJKL

EAST KENTUCKY HOURLY WEATHER ROUNDUP
NATIONAL WEATHER SERVICE JACKSON KY
500 AM EDT WED AUG 27 2014

NOTE: "FAIR" INDICATES FEW OR NO CLOUDS BELOW 12,000 FEET WITH
NO SIGNIFICANT WEATHER AND/OR OBSTRUCTIONS TO VISIBILITY.

* THESE REPORTS ARE NOT UNDER NWS QUALITY CONTROL AND MAY NOT
  REPORT WEATHER SUCH AS PRECIPITATION AND FOG.

KYZ079-080-083-085-087-088-110-112-115-119-120-271000
...EASTERN KENTUCKY...

CITY           SKY/WX    TMP DP  RH WIND       PRES   REMARKS
JACKSON        CLEAR     65  61  87 CALM      30.12R
LONDON         CLEAR     64  60  87 CALM      30.11S
SOMERSET*      CLEAR     63  63 100 CALM      30.11S
MONTICELLO*    CLEAR     62  61  97 CALM      30.12R
MIDDLESBORO*   FOG       63  63 100 CALM      30.13S VSB 1
HARLAN APT*    CLOUDY    63  63 100 MISG      30.14S VSB<1/4
HAZARD APT*    PTSUNNY   61  61 100 CALM      30.12R FOG
BLACK MTN*       N/A     63  55  77 S1          N/A
PIKEVILLE APT* CLEAR     63  61  94 S3        30.12S
BIG SANDY*     MOSUNNY   61  60  99 CALM      30.12R FOG
MOREHEAD APT*  PTSUNNY   64  63  94 CALM      30.13S
ASHLAND*       CLEAR     64  61  88 CALM      30.08S
$$

KYZ035-036-041-042-044-050-067-078-099-271000
...CENTRAL KENTUCKY...

CITY           SKY/WX    TMP DP  RH WIND       PRES   REMARKS
MT STERLING*   CLEAR     63  63 100 CALM      30.12S
FLEMING/MASON* CLEAR     66  64  94 SE3       30.10F
DANVILLE*      CLEAR     63  63 100 CALM      30.11F
RICHMOND*      CLEAR     64  61  88 CALM      30.10S
LEXINGTON      CLEAR     68  64  87 SE5       30.10S
FRANKFORT      CLEAR     68  66  93 CALM      30.08F
$$

KYZ091>093-OHZ055-061-077-WVZ005-015-034-035-042-271000
...SOUTHERN OHIO/WEST VIRGINIA...

CITY           SKY/WX    TMP DP  RH WIND       PRES   REMARKS
COVINGTON      MOCLDY    71  67  87 CALM      30.09S
COLUMBUS       PTCLDY    73  67  81 CALM      30.08S
DAYTON         PTCLDY    70  67  90 CALM      30.11R
WILMINGTON     CLEAR     67  64  90 SW5       30.09S
HUNTINGTON     PTCLDY    61  61 100 CALM      30.09S FOG
CHARLESTON     PTCLDY    60  60 100 CALM      30.10S
PINEVILLE*     CLOUDY    58  58 100 MISG      30.20R FOG
BECKLEY        CLEAR     55  52  89 SE3       30.17S
BLUEFIELD      CLEAR     59  53  80 CALM      30.18R
$$

VAZ002-007-008-TNZ017-027-036-066-071-271000
...SOUTHWEST VIRGINIA/EAST TENNESSEE...

CITY           SKY/WX    TMP DP  RH WIND       PRES   REMARKS
WISE*          PTCLDY    59  52  77 S5        30.18S
JONESVILLE*      N/A     59  59 100 CALM      30.14F
ABINGDON*      CLEAR     57  55  93 E3        30.15S
BRISTOL        CLEAR     58  55  90 CALM      30.13S
KNOXVILLE      CLEAR     64  63  96 CALM      30.08S
OAK RIDGE      CLOUDY    66  65  96 CALM      30.11S FOG
CROSSVILLE     CLEAR     68  61  78 CALM      30.14S
NASHVILLE      PTCLDY    71  69  93 CALM      30.08S
$$

...KEY TO REMARKS...
VSB - VISIBILITY IN MILES
WCI - WIND CHILL INDEX
HX  - HEAT INDEX

$$


USA.gov is the U.S. government's official web portal to all federal, state and local government web resources and services.